Wainwright, AK

3:42 AM AKDT on April 29, 2017 (GMT -0800)
Wainwright

Weather History for PAWI - September, 2013

Change the Weather History Date:

Wednesday, September 25, 2013

  Actual Average (PABR) Record (PABR)
Temperature  
Mean Temperature 29 °F -  
Max Temperature 35 °F 30 °F 46 °F (1984)
Min Temperature 24 °F 24 °F 7 °F (1924)
Degree Days  
Heating Degree Days 36    
Moisture  
Dew Point 24 °F    
Average Humidity 84    
Maximum Humidity 93    
Minimum Humidity 70    
Precipitation  
Precipitation 0.04 in - - ()
Sea Level Pressure  
Sea Level Pressure 29.56 in    
Wind  
Wind Speed 8 mph (South)    
Max Wind Speed 15 mph    
Max Gust Speed -    
Visibility 9 miles    
Events Snow    
Averages and records for this station are not official NWS values.
T = Trace of Precipitation, MM = Missing Value Source: NWS Daily Summary

Daily Weather History Graph

Daily Weather History Graph

Search for Another Location

Airport or City:

Trip Planner

Search our weather history database for the weather conditions in past years. The results will help you decide how hot, cold, wet, or windy it might be!

Date:

Astronomy

Sep. 25, 2013 Rise Set
Actual Time 8:33 AM AKDT 8:26 PM AKDT
Civil Twilight 7:30 AM AKDT 9:29 PM AKDT
Nautical Twilight 6:11 AM AKDT 10:47 PM AKDT
Astronomical Twilight 4:24 AM AKDT 12:30 AM AKDT
Moon No Moon Rise No Moon Set
Length of Visible Light 13h 58m
Length of Day
11h 52m
Waning Gibbous, 62% of the Moon is Illuminated
Sep 25
Waning Gibbous
Sep 26
Last Quarter
Oct 4
New
Oct 11
First Quarter
Oct 18
Full

Hourly Weather History & Observations

Time (AKDT) Temp. Windchill Dew Point Humidity Pressure Visibility Wind Dir Wind Speed Gust Speed Precip Events Conditions
12:53 AM 26.1 °F 15.6 °F 21.9 °F 84% 29.64 in 10.0 mi South 11.5 mph - N/A   Clear
1:53 AM 25.0 °F 13.6 °F 21.0 °F 85% 29.64 in 10.0 mi SSE 12.7 mph - N/A   Clear
2:53 AM 25.0 °F 14.2 °F 19.9 °F 81% 29.64 in 10.0 mi South 11.5 mph - N/A   Clear
3:53 AM 25.0 °F 16.3 °F 19.9 °F 81% 29.62 in 10.0 mi South 8.1 mph - N/A   Clear
4:53 AM 24.1 °F 16.0 °F 19.9 °F 84% 29.61 in 10.0 mi South 6.9 mph - N/A   Clear
5:53 AM 25.0 °F 16.3 °F 19.9 °F 81% 29.60 in 10.0 mi South 8.1 mph - N/A   Clear
6:53 AM 24.1 °F 18.2 °F 19.9 °F 84% 29.58 in 10.0 mi SE 4.6 mph - N/A   Clear
7:53 AM 24.1 °F 17.0 °F 19.9 °F 84% 29.58 in 10.0 mi SSE 5.8 mph - N/A   Clear
8:53 AM 25.0 °F 18.1 °F 21.0 °F 85% 29.57 in 10.0 mi SSE 5.8 mph - N/A   Overcast
9:53 AM 26.1 °F 18.4 °F 21.9 °F 84% 29.57 in 10.0 mi SSE 6.9 mph - N/A   Overcast
10:53 AM 24.1 °F 17.0 °F 19.0 °F 81% 29.55 in 10.0 mi South 5.8 mph - N/A   Overcast
11:53 AM 27.0 °F 21.6 °F 21.9 °F 81% 29.55 in 10.0 mi South 4.6 mph - N/A   Overcast
12:53 PM 28.0 °F 24.2 °F 24.1 °F 85% 29.54 in 10.0 mi SSE 3.5 mph - N/A   Mostly Cloudy
1:53 PM 28.9 °F 25.2 °F 24.1 °F 82% 29.53 in 10.0 mi SSE 3.5 mph - N/A   Clear
2:41 PM 30.2 °F 26.7 °F 26.6 °F 86% 29.53 in 10.0 mi South 3.5 mph - N/A   Scattered Clouds
2:50 PM 30.2 °F 23.4 °F 24.8 °F 80% 29.53 in 10.0 mi SSW 6.9 mph - N/A   Mostly Cloudy
2:53 PM 30.0 °F 24.1 °F 25.0 °F 82% 29.54 in 10.0 mi SSW 5.8 mph - N/A   Mostly Cloudy
3:37 PM 30.2 °F 23.4 °F 24.8 °F 80% 29.53 in 10.0 mi South 6.9 mph - N/A   Mostly Cloudy
3:51 PM 30.2 °F 23.4 °F 24.8 °F 80% 29.53 in 10.0 mi SSW 6.9 mph - N/A   Mostly Cloudy
3:53 PM 30.0 °F 24.1 °F 26.1 °F 85% 29.54 in 10.0 mi SSW 5.8 mph - N/A   Mostly Cloudy
4:53 PM 34.0 °F 29.8 °F 28.0 °F 79% 29.53 in 10.0 mi WSW 4.6 mph - 0.02 in   Mostly Cloudy
5:53 PM 33.1 °F 26.9 °F 27.0 °F 78% 29.53 in 10.0 mi WSW 6.9 mph - 0.02 in   Partly Cloudy
6:53 PM 33.1 °F 28.7 °F 27.0 °F 78% 29.53 in 10.0 mi West 4.6 mph - N/A   Overcast
7:53 PM 32.0 °F 26.4 °F 27.0 °F 82% 29.54 in 10.0 mi SW 5.8 mph - N/A   Overcast
8:53 PM 30.9 °F 22.8 °F 28.0 °F 89% 29.55 in 10.0 mi SSW 9.2 mph - N/A   Overcast
9:53 PM 30.0 °F 21.7 °F 27.0 °F 88% 29.55 in 10.0 mi South 9.2 mph - 0.00 in   Overcast
10:16 PM 30.2 °F 19.3 °F 26.6 °F 86% 29.55 in 1.5 mi SSW 15.0 mph - 0.00 in Snow Light Snow
10:31 PM 30.2 °F 21.9 °F 28.4 °F 93% 29.55 in 0.8 mi WSW 9.2 mph - 0.00 in Snow Light Snow
10:41 PM 30.2 °F 23.4 °F 28.4 °F 93% 29.55 in 2.0 mi SSW 6.9 mph - 0.00 in Snow Light Snow
10:50 PM 30.2 °F 22.6 °F 28.4 °F 93% 29.55 in 4.0 mi South 8.1 mph - 0.00 in Snow Light Snow
10:51 PM 30.9 °F 24.3 °F 28.9 °F 92% 29.56 in 4.0 mi South 6.9 mph - 0.00 in Snow Light Snow
11:02 PM 30.2 °F 21.9 °F 28.4 °F 93% 29.55 in 8.0 mi South 9.2 mph - 0.00 in Snow Light Snow
11:53 PM 33.1 °F 24.4 °F 24.1 °F 70% 29.56 in 10.0 mi West 11.5 mph - 0.00 in   Scattered Clouds